Starlink 4621

operational
NORAD ID: 53676 Int'l Des: 2022-105 Owner: SPXS Country: US Constellation: starlink
LEOCIRCULARRETROGRADESSO

About Starlink 4621

Description loading...

Live Position

Loading 3D Globe...

Upcoming Passes

Altitude History

Altitude vs Time

uPlot chart will show altitude changes over time

Two-Line Element Set

1 53676U 22105AE 26102.38741296 -.00000148 00000-0 -60605-5 0 9995
2 53676 97.6019 343.3586 0002342 87.2313 272.9182 15.05644250198302
Epoch: Apr 12, 2026 • Age: 11 hours

Current Status

Altitude 553.1 km
Velocity 7.59 km/s
Sub-Earth Point 33.92°N, 171.56°W
Launch Date Aug 31, 2022
Age 3.6 years
Type internet

Technical Details

Classification Payload
Mass 300.00 kg
Dry Mass 290.00 kg
Total Mass 300.00 kg
Length 0.20 m
Diameter 2.80 m
Span 9.00 m
Shape Box + pan
Manufacturer SPXS
Bus Type Starlink
Phase Status In Orbit
Owner/State SPXS/US

Large Constellations

Loading constellations...